Location: Unspecified
(0.0000°N, 0.0000°E)
Time: 19:48:24
(UTC+00:00)

Quakesat - Pass Details

Date: 03 August 2021
Orbit: 811 x 824 km, 98.7° (Epoch: 20 September)

Event Time Altitude Azimuth Distance (km) Brightness Sun altitude
Rises 05:05:18 0° 41° (NE) 3,344 ? -14.5°
Reaches altitude 10° 05:08:16 10° 57° (ENE) 2,413 ? -13.8°
Maximum altitude 05:12:04 20° 103° (ESE) 1,817 ? -12.9°
Drops below altitude 10° 05:15:51 10° 149° (SSE) 2,415 ? -12.0°
Sets 05:18:48 0° 165° (SSE) 3,348 ? -11.3°
